Location: Lawrence
(38.9720°N, 95.2350°W)
Time: 22:21:39
(UTC-05:00)

JAS-1B - Visible Passes

Search period start: 29 April 2016 00:00
Search period end: 09 May 2016 00:00
Orbit: 912 x 1743 km, 99.0° (Epoch: 29 April)

Date Brightness Start Highest point End Pass type
(mag) Time Alt. Az. Time Alt. Az. Time Alt. Az.
29 Apr 8.7 21:35:30 10° N 21:44:12 52° WNW 21:51:35 10° SW visible
29 Apr 10.6 23:29:51 10° NNW 23:32:18 11° NW 23:34:41 10° WNW visible
30 Apr 9.2 21:54:50 10° N 22:02:59 40° WNW 22:10:00 10° SW visible
01 May 9.6 22:14:18 10° N 22:21:42 30° WNW 22:28:11 10° WSW visible
02 May 11.1 05:20:33 10° ENE 05:23:58 12° NE 05:27:23 10° NNE visible
02 May 7.7 20:42:08 10° NNE 20:51:01 80° ESE 20:58:21 10° S visible
02 May 10.0 22:33:54 10° N 22:40:19 23° NW 22:46:05 10° WSW visible
03 May 10.9 05:37:06 10° E 05:42:26 17° NE 05:47:50 10° NNE visible
03 May 7.9 21:01:14 10° NNE 21:10:02 79° WNW 21:17:18 10° SSW visible
03 May 10.3 22:53:44 10° NNW 22:58:52 17° NW 23:03:36 10° W visible
04 May 8.3 21:20:26 10° N 21:28:58 60° WNW 21:36:03 10° SSW visible
04 May 10.5 23:14:05 10° NNW 23:17:21 13° NW 23:20:26 10° WNW visible
05 May 8.9 21:39:44 10° N 21:47:47 45° WNW 21:54:36 10° SW visible
06 May 9.4 21:59:08 10° N 22:06:32 34° WNW 22:12:55 10° WSW visible
07 May 11.2 05:08:03 10° NE 05:09:11 10° NE 05:10:19 10° NE visible
07 May 9.8 22:18:40 10° N 22:25:12 26° WNW 22:30:57 10° WSW visible
08 May 11.0 05:23:15 10° ENE 05:27:38 14° NE 05:31:59 10° NNE visible
08 May 7.6 20:46:14 10° NNE 20:54:38 88° ESE 21:01:32 10° SSW visible
08 May 10.1 22:38:24 10° NNW 22:43:47 19° NW 22:48:39 10° W visible
